Weather History for Cairns, QU

Change the Weather History Date:

Thursday, December 12, 2013

  Actual Average Record
Temperature  
Mean Temperature 80 °F -  
Max Temperature 84 °F 88 °F 93 °F (2005)
Min Temperature 75 °F 74 °F 69 °F (2000)
Cooling Degree Days 14    
Growing Degree Days 30 (Base 50)    
Moisture  
Dew Point 72 °F    
Average Humidity 75    
Maximum Humidity 94    
Minimum Humidity 59    
Precipitation  
Precipitation 0.08 in 0.36 in - ()
Sea Level Pressure  
Sea Level Pressure 29.75 in    
Wind  
Wind Speed 3 mph ()    
Max Wind Speed 10 mph    
Max Gust Speed -    
Visibility 6.8 miles    
Events Rain    
Averages and records for this station are not official NWS values.
T = Trace of Precipitation, MM = Missing Value Source: Averaged Metar Reports

Daily Weather History Graph

Daily Weather History Graph

Search for Another Location

Airport:

Trip Planner

Search our weather history database for the weather conditions in past years. The results will help you decide how hot, cold, wet, or windy it might be!

Date:

Astronomy

Dec. 12, 2013 Rise Set
Actual Time 5:37 AM AEST 6:44 PM AEST
Civil Twilight 5:13 AM AEST 7:08 PM AEST
Nautical Twilight 4:44 AM AEST 7:36 PM AEST
Astronomical Twilight 4:15 AM AEST 8:05 PM AEST
Moon 2:22 PM AEST (12/12) 1:35 AM AEST (12/12)
Length of Visible Light 13h 55m
Length of Day
13h 07m
Waxing Gibbous, 75% of the Moon is Illuminated
Dec 12
Waxing Gibbous
Dec 17
Full
Dec 25
Last Quarter
Jan 1
New
Jan 8
First Quarter

Hourly Weather History & Observations

Time (AEST) Temp. Heat Index Dew Point Humidity Pressure Visibility Wind Dir Wind Speed Gust Speed Precip Events Conditions
12:00 AM 78 °F - 72 °F 78% 29.77 in - Calm Calm - -   Overcast
12:00 AM 78.8 °F - 71.6 °F 78% 29.77 in 6.2 mi Calm Calm - N/A   Mostly Cloudy
12:30 AM 78.8 °F - 73.4 °F 83% 29.74 in 6.2 mi Calm Calm - N/A   Mostly Cloudy
1:00 AM 78 °F - 72 °F 78% 29.76 in - Calm Calm - -  
1:00 AM 78.8 °F - 73.4 °F 83% 29.74 in 6.2 mi Calm Calm - N/A   Mostly Cloudy
1:30 AM 78.8 °F - 73.4 °F 83% 29.74 in 6.2 mi Calm Calm - N/A   Mostly Cloudy
2:00 AM 78.8 °F - 73.4 °F 83% 29.74 in 6.2 mi West 2.3 mph - N/A   Mostly Cloudy
2:30 AM 77.0 °F - 71.6 °F 83% 29.74 in 6.2 mi Calm Calm - N/A   Mostly Cloudy
3:00 AM 78 °F - 73 °F 79% 29.73 in - Calm Calm - -   Overcast
3:00 AM 77.0 °F - 73.4 °F 89% 29.71 in 6.2 mi Calm Calm - N/A   Mostly Cloudy
3:30 AM 78.8 °F - 71.6 °F 78% 29.71 in 6.2 mi Calm Calm - N/A   Mostly Cloudy
4:00 AM 78 °F - 72 °F 76% 29.74 in - Calm Calm - -  
4:00 AM 78.8 °F - 71.6 °F 78% 29.71 in 6.2 mi Calm Calm - N/A   Mostly Cloudy
4:30 AM 77.0 °F - 71.6 °F 83% 29.74 in 6.2 mi SE 2.3 mph - N/A   Mostly Cloudy
5:00 AM 77.0 °F - 71.6 °F 83% 29.74 in 6.2 mi Calm Calm - N/A   Mostly Cloudy
5:30 AM 77.0 °F - 71.6 °F 83% 29.74 in 6.2 mi WNW 3.5 mph - N/A   Overcast
6:00 AM 78 °F - 73 °F 80% 29.76 in 19 mi Calm Calm - -   Partly Cloudy
6:00 AM 77.0 °F - 73.4 °F 89% 29.74 in 6.2 mi Calm Calm - N/A   Overcast
6:30 AM 78.8 °F - 73.4 °F 83% 29.77 in 6.2 mi Calm Calm - N/A   Overcast
7:00 AM 78 °F - 71 °F 74% 29.79 in - South 5.8 mph - -  
7:00 AM 78.8 °F - 71.6 °F 78% 29.77 in 6.2 mi South 5.8 mph - N/A   Overcast
7:30 AM 78.8 °F - 71.6 °F 78% 29.77 in 6.2 mi ESE 6.9 mph - N/A   Overcast
8:00 AM 77.0 °F - 73.4 °F 89% 29.80 in 5.6 mi NNE 4.6 mph - N/A   Light Drizzle
8:21 AM 77.0 °F - 73.4 °F 89% 29.80 in 3.1 mi NNE 1.2 mph - N/A   Light Drizzle
8:30 AM 77.0 °F - 73.4 °F 89% 29.80 in 3.1 mi Calm Calm - N/A   Light Drizzle
9:00 AM 77 °F - 74 °F 89% 29.81 in 6 mi ENE 3.5 mph - - Rain Light Drizzle
9:00 AM 77.0 °F - 75.2 °F 94% 29.80 in 6.2 mi ENE 3.5 mph - N/A   Light Drizzle
9:20 AM 77.0 °F - 73.4 °F 89% 29.80 in 6.2 mi NE 6.9 mph - N/A   Mostly Cloudy
9:30 AM 78.8 °F - 75.2 °F 89% 29.80 in 6.2 mi ENE 5.8 mph - N/A   Mostly Cloudy
10:00 AM 81 °F - 74 °F 74% 29.80 in - ENE 5.8 mph - -  
10:00 AM 80.6 °F 85.4 °F 73.4 °F 79% 29.77 in 6.2 mi ENE 5.8 mph - N/A   Scattered Clouds
10:30 AM 80.6 °F 84.6 °F 71.6 °F 74% 29.77 in 6.2 mi NE 6.9 mph - N/A   Mostly Cloudy
11:00 AM 80.6 °F 84.6 °F 71.6 °F 74% 29.77 in 6.2 mi NE 6.9 mph - N/A   Scattered Clouds
11:30 AM 82.4 °F 87.2 °F 71.6 °F 70% 29.74 in 6.2 mi NNE 8.1 mph - N/A   Scattered Clouds
12:00 PM 83 °F - 72 °F 61% 29.75 in 19 mi North 10.4 mph - -   Partly Cloudy
12:00 PM 82.4 °F 87.2 °F 71.6 °F 70% 29.74 in 6.2 mi North 10.4 mph - N/A   Scattered Clouds
12:30 PM 84.2 °F 89.6 °F 71.6 °F 66% 29.74 in 6.2 mi NNE 9.2 mph - N/A   Scattered Clouds
1:00 PM 84 °F - 72 °F 60% 29.75 in - NNE 9.2 mph - -  
1:00 PM 84.2 °F 89.6 °F 71.6 °F 66% 29.74 in 6.2 mi NNE 9.2 mph - N/A   Scattered Clouds
1:30 PM 82.4 °F 87.2 °F 71.6 °F 70% 29.74 in 6.2 mi NNE 10.4 mph - N/A   Scattered Clouds
2:00 PM 82.4 °F 87.2 °F 71.6 °F 70% 29.71 in 6.2 mi NNE 10.4 mph - N/A   Mostly Cloudy
2:30 PM 82.4 °F 87.2 °F 71.6 °F 70% 29.71 in 6.2 mi NNE 9.2 mph - N/A   Mostly Cloudy
3:00 PM 83 °F - 71 °F 60% 29.72 in 19 mi NNE 8.1 mph - -   Partly Cloudy
3:00 PM 82.4 °F 87.2 °F 71.6 °F 70% 29.71 in 6.2 mi NNE 8.1 mph - N/A   Mostly Cloudy
3:30 PM 82.4 °F 87.2 °F 71.6 °F 70% 29.71 in 6.2 mi NNE 8.1 mph - N/A   Mostly Cloudy
4:00 PM 83 °F - 71 °F 59% 29.72 in - NNE 8.1 mph - -  
4:00 PM 82.4 °F 87.2 °F 71.6 °F 70% 29.71 in 6.2 mi NNE 8.1 mph - N/A   Mostly Cloudy
4:30 PM 82.4 °F 86.3 °F 69.8 °F 66% 29.71 in 6.2 mi NNE 8.1 mph - N/A   Mostly Cloudy
5:00 PM 82.4 °F 86.3 °F 69.8 °F 66% 29.71 in 6.2 mi NNE 6.9 mph - N/A   Mostly Cloudy
5:30 PM 82.4 °F 86.3 °F 69.8 °F 66% 29.71 in 6.2 mi NNE 6.9 mph - N/A   Mostly Cloudy
6:00 PM 82 °F - 70 °F 59% 29.73 in - NNE 5.8 mph - -   Overcast
6:00 PM 82.4 °F 86.3 °F 69.8 °F 66% 29.71 in 6.2 mi NNE 5.8 mph - N/A   Overcast
6:30 PM 80.6 °F 83.9 °F 69.8 °F 70% 29.74 in 6.2 mi NNE 5.8 mph - N/A   Overcast
7:00 PM 81 °F - 70 °F 62% 29.75 in - North 5.8 mph - -  
7:00 PM 80.6 °F 83.9 °F 69.8 °F 70% 29.74 in 6.2 mi North 5.8 mph - N/A   Overcast
7:30 PM 80.6 °F 84.6 °F 71.6 °F 74% 29.74 in 6.2 mi North 4.6 mph - N/A   Overcast
8:00 PM 80.6 °F 84.6 °F 71.6 °F 74% 29.77 in 6.2 mi North 4.6 mph - N/A   Overcast
8:30 PM 80.6 °F 85.4 °F 73.4 °F 79% 29.77 in 6.2 mi North 2.3 mph - N/A   Overcast
9:00 PM 80 °F - 72 °F 72% 29.78 in - Calm Calm - -   Overcast
9:00 PM 80.6 °F 85.4 °F 73.4 °F 79% 29.77 in 6.2 mi Calm Calm - N/A   Overcast
9:30 PM 80.6 °F 84.6 °F 71.6 °F 74% 29.77 in 6.2 mi West 4.6 mph - N/A   Overcast
10:00 PM 80 °F - 71 °F 67% 29.81 in - West 4.6 mph - -  
10:00 PM 80.6 °F 84.6 °F 71.6 °F 74% 29.80 in 6.2 mi West 4.6 mph - N/A   Mostly Cloudy
10:30 PM 80.6 °F 84.6 °F 71.6 °F 74% 29.80 in 6.2 mi Calm Calm - N/A   Mostly Cloudy
11:00 PM 80.6 °F 84.6 °F 71.6 °F 74% 29.80 in 6.2 mi SSE 8.1 mph - N/A   Mostly Cloudy
11:30 PM 80.6 °F 84.6 °F 71.6 °F 74% 29.80 in 6.2 mi South 10.4 mph - N/A   Mostly Cloudy